sat.trackr.live / text

‹ back to catalog

STARLINK-11283 [DTC]

NORAD 60993 · 2024-158D

PAYLOAD ACTIVE UNKNOWN

§ Identity

Operator
Country
US
Launch date
2024-09-05
Launch site
AFETR
Launch vehicle
Mass (kg)
RCS (m²)

Purposes: comms

External: N2YO · Heavens-Above · Gunter

§ Orbital elements

Epoch: 2026-05-25T01:17:19.570272Z

Period
91.74 min
Inclination
53.1579°
Eccentricity
0.0001287
Mean motion
15.69710966 rev/d
Perigee alt
358.9 km
Apogee alt
360.6 km
Semi-major
6,737.9 km
B*
1.1663e-6
RAAN
265.1698°
Arg perigee
85.8040°
Mean anomaly
274.3124°
Rev number
9,958

§ Raw data

STARLINK-11283 [DTC]1 60993U 24158D   26145.05369873 -.00000448  00000+0  11663-5 0  99942 60993  53.1579 265.1698 0001287  85.8040 274.3124 15.69710966 99583

JSON: /api/v1/satellites/60993 · /tle

For live sub-satellite position, see the globe view (requires WebGL).

§ Visibility from observer

Set your observer location to see the next 7 days of passes ≥ 10°. The values pass through the URL so the page stays shareable.

No JS? Fill the form by hand. The geolocation button needs JavaScript.